Location: Observatorio Las Palmas
(29.0667°N, 110.9333°W)
Time: 01:26:14
(UTC-07:00)

Skynet4D Del rocket - Visible Passes

Search period start: 05 December 2016 00:00
Search period end: 15 December 2016 00:00
Orbit: 763 x 1291 km, 26.9° (Epoch: 04 December)

Date Brightness Start Highest point End Pass type
(mag) Time Alt. Az. Time Alt. Az. Time Alt. Az.
05 Dec 5.0 04:59:05 22° SSW 05:01:14 29° SSE 05:05:49 10° E visible
06 Dec 6.1 03:52:46 15° ESE 03:52:46 15° ESE 03:54:06 10° ESE visible
06 Dec 4.3 05:38:26 17° SW 05:42:23 48° SSE 05:47:34 10° E visible
07 Dec 4.8 04:32:01 34° SSE 04:32:01 34° SSE 04:36:16 10° E visible
07 Dec 3.8 06:18:20 10° WSW 06:23:38 65° S 06:29:02 10° E visible
08 Dec 4.0 05:11:11 41° SW 05:12:40 54° SSE 05:17:52 10° E visible
09 Dec 5.6 04:04:36 23° ESE 04:04:36 23° ESE 04:06:44 10° E visible
09 Dec 3.7 05:50:15 20° WSW 05:53:57 69° S 05:59:16 10° E visible
10 Dec 4.0 04:43:38 55° SE 04:43:38 55° SE 04:48:13 10° E visible
10 Dec 3.7 06:29:54 10° W 06:35:17 70° S 06:40:38 10° E visible
11 Dec 6.5 03:36:58 11° E 03:36:58 11° E 03:37:12 10° E visible
11 Dec 3.6 05:22:37 45° WSW 05:24:16 71° S 05:29:35 10° E visible
12 Dec 5.2 04:15:53 30° E 04:15:53 30° E 04:18:36 10° E visible
12 Dec 3.7 06:01:32 18° W 06:05:36 67° S 06:10:54 10° ESE visible
13 Dec 3.6 04:54:47 71° SSE 04:54:47 71° SSE 04:59:56 10° E visible
13 Dec 4.1 06:41:34 10° W 06:46:52 50° SSW 06:52:01 10° ESE visible
14 Dec 6.2 03:48:01 16° E 03:48:01 16° E 03:49:01 10° E visible
14 Dec 3.7 05:33:39 36° WSW 05:35:53 64° S 05:41:12 10° ESE visible
